[[{"header":{"parameterUnit":"m.s-1","parameterCategory":1,"la1":30.2991,"la2":30.254,"lo1":-89.0895,"lo2":-89.0444,"dx":0.0017,"dy":0.0017,"nx":28,"ny":28,"refTime":"2022-11-17T15:00:00:Z","depth":0,"parameterNumber":2,"parameterNumberName":"U-component_of_WINDS"},"data":[0,0,0,0,0,0,0,0,0,0,0,0,0,0,0,0,0,0,0,0,0,0,0,0,0,0,0,0,0,0,0,0,0,0,0,0,0,0,0,0,0,0,0,0,0,0,0,0,0,0,0,0,0,0,0,0,0,0,-2.829,-2.829,0,-2.8282,-2.8282,-2.8282,-2.82,-2.8198,-2.8196,-2.8194,-2.8187,-2.8189,-2.8191,0,0,0,0,0,0,0,0,0,0,0,0,0,-2.8235,-2.8236,-2.829,-2.829,-2.8289,-2.8282,-2.8282,-2.8282,-2.8201,-2.8198,-2.8196,-2.8193,-2.8187,-2.8189,-2.8191,0,0,0,0,0,0,0,0,0,0,0,0,0,-2.8246,-2.8237,-2.829,-2.8248,-2.8244,-2.8282,-2.8282,-2.8282,-2.8201,-2.8198,-2.8195,-2.8192,-2.8186,-2.8188,-2.8191,-2.8268,0,0,-2.8199,-2.82,0,0,0,0,0,0,0,0,-2.8246,-2.8248,-2.8254,-2.8251,-2.8247,-2.8239,-2.826,-2.8277,-2.8202,-2.8218,-2.8194,-2.8191,-2.8207,-2.8208,-2.8213,-2.8268,-2.8268,-2.8199,-2.8201,-2.8202,-2.8202,0,0,0,0,0,0,0,-2.8245,-2.8248,-2.8287,-2.8254,-2.825,-2.823,-2.8228,-2.8263,-2.823,-2.8216,-2.821,-2.821,-2.8204,-2.8211,-2.8212,-2.8268,-2.8199,-2.8201,-2.8203,-2.8204,-2.8387,-2.839,0,0,0,0,0,0,-2.825,-2.8248,-2.8287,-2.8286,-2.8239,-2.8233,-2.8231,-2.8245,-2.8229,-2.8224,-2.8213,-2.8206,-2.8208,-2.8209,-2.8212,-2.8302,-2.8202,-2.8204,-2.8206,-2.8383,-2.8387,-2.8391,0,0,0,0,0,0,-2.8249,-2.8254,-2.8287,-2.8266,-2.8268,-2.8238,-2.8253,-2.8246,-2.8252,-2.8227,-2.822,-2.8225,-2.8205,-2.8208,-2.8255,-2.8301,-2.8205,-2.8208,-2.8379,-2.8385,-2.8389,-2.8484,0,0,0,0,0,0,-2.8248,-2.8254,-2.8283,-2.8267,-2.827,-2.8331,-2.8256,-2.8248,-2.8257,-2.8248,-2.8237,-2.8232,-2.8203,-2.8252,-2.8258,-2.8303,-2.821,-2.8375,-2.8382,-2.8388,-2.8477,-2.8491,-2.8504,0,0,0,0,0,-2.8246,-2.831,-2.8285,-2.829,-2.8305,-2.8334,-2.8335,-2.8301,-2.8261,-2.829,-2.8273,-2.8232,-2.8294,-2.8257,-2.8263,-2.831,-2.8372,-2.838,-2.8387,-2.847,-2.8488,-2.8504,0,0,0,0,0,0,-2.8333,-2.8307,-2.8279,-2.834,-2.834,-2.832,-2.8356,-2.8321,-2.8332,-2.8324,-2.8281,-2.8279,-2.8333,-2.8325,-2.8284,-2.8384,-2.8326,-2.8335,-2.8387,-2.8404,-2.8418,-2.842,-2.8212,0,0,0,0,0,-2.8359,-2.8384,-2.836,-2.8416,-2.8417,-2.8387,-2.8398,-2.8371,-2.8369,-2.8369,-2.8355,-2.8356,-2.8375,-2.8389,-2.8405,-2.8474,-2.8471,-2.8509,-2.8523,-2.8535,-2.8544,-2.8581,-2.8598,-2.8415,-2.8415,-2.8415,0,0,-2.8414,-2.8402,-2.8421,-2.8433,-2.843,-2.8457,-2.8387,-2.8419,-2.8439,-2.8373,-2.8418,-2.8408,-2.8405,-2.8464,-2.8489,-2.8459,-2.8593,-2.8544,-2.8553,-2.8556,-2.859,-2.8608,-2.8623,-2.842,-2.842,-2.8419,0,0,-2.8527,-2.8521,-2.8567,-2.8565,-2.8561,-2.854,-2.8551,-2.8537,-2.8528,-2.8571,-2.8523,-2.8546,-2.858,-2.8581,-2.8586,-2.8699,-2.8662,-2.8706,-2.8779,-2.8816,-2.883,-2.8843,-2.8885,-2.8901,-2.8714,-2.8714,-2.8715,0,-2.8596,-2.8635,-2.8596,-2.8631,-2.8638,-2.8579,-2.8627,-2.8626,-2.8628,-2.8635,-2.8601,-2.8643,-2.8637,-2.8696,-2.8724,-2.8729,-2.8741,-2.8708,-2.8831,-2.8843,-2.8854,-2.8894,-2.891,-2.872,-2.8719,-2.8719,-2.8718,0,-2.872,-2.8748,-2.8786,-2.8789,-2.88,-2.8842,-2.8809,-2.8825,-2.8797,-2.878,-2.8825,-2.8815,-2.883,-2.8841,-2.8814,-2.8896,-2.8878,-2.8839,-2.878,-2.8878,-2.8915,-2.893,-2.8728,-2.8726,-2.8724,-2.8723,0,0,-2.889,-2.8871,-2.8885,-2.8887,-2.8877,-2.8898,-2.8937,-2.895,-2.8966,-2.8968,-2.9,-2.9031,-2.8994,-2.8999,-2.8972,-2.9004,-2.9097,-2.896,-2.8959,-2.8988,-2.9189,-2.922,-2.9239,-2.9071,-2.9074,-2.9076,-2.9189,0,-2.9001,-2.9066,-2.9032,-2.9101,-2.9127,-2.9072,-2.9105,-2.9104,-2.9089,-2.9108,-2.9091,-2.9114,-2.9063,-2.9066,-2.9095,-2.9079,-2.9137,-2.907,-2.9102,-2.9104,-2.9107,-2.9257,-2.9291,-2.9399,-2.9203,-2.9206,-2.9207,0,-2.914,-2.9149,-2.9222,-2.9208,-2.9218,-2.9249,-2.9259,-2.9278,-2.9275,-2.9262,-2.9268,-2.9233,-2.927,-2.921,-2.9262,-2.9217,-2.9228,-2.9222,-2.9225,-2.9229,-2.9163,-2.9267,-2.9432,-2.9449,-2.9229,-2.9228,-2.9226,0,-2.9259,-2.9289,-2.9337,-2.9339,-2.9324,-2.9347,-2.9342,-2.9336,-2.9347,-2.9355,-2.9362,-2.9374,-2.9382,-2.9393,-2.9362,-2.9321,-2.9419,-2.9356,-2.941,-2.9411,-2.9435,-2.9434,-2.9606,-2.9438,-2.9438,-2.9438,-2.9437,0,-2.9388,-2.9436,-2.939,-2.942,-2.9471,-2.9431,-2.9482,-2.9471,-2.9466,-2.9493,-2.9445,-2.9471,-2.9428,-2.945,-2.9426,-2.9473,-2.9476,-2.9467,-2.9461,-2.9473,-2.9475,-2.9481,-2.9474,-2.9442,-2.9441,-2.944,-2.9439,0,-2.9531,-2.9503,-2.9551,-2.9533,-2.9529,-2.9568,-2.9552,-2.9579,-2.956,-2.9595,-2.9601,-2.9571,-2.9595,-2.9565,-2.9585,-2.9569,-2.9634,-2.9615,-2.9636,-2.9631,-2.9687,-2.9684,-2.9871,-2.9895,-2.971,-2.9712,-2.9713,0,-2.9617,-2.9652,-2.9637,-2.9652,-2.9649,-2.9673,-2.9684,-2.9645,-2.9658,-2.9657,-2.9685,-2.9704,-2.9717,-2.9757,-2.9738,-2.9754,-2.9736,-2.9801,-2.9739,-2.975,-2.974,-2.9739,-2.9743,-2.9815,-2.9817,-2.9819,-2.982,0,-2.9772,-2.9756,-2.9773,-2.9786,-2.98,-2.9808,-2.9812,-2.9827,-2.9786,-2.9803,-2.9826,-2.9837,-2.9858,-2.9878,-2.9889,-2.9883,-2.9846,-2.984,-2.9853,-2.9868,-2.9879,-2.9876,-2.9673,-2.9836,-2.9835,-2.9833,-2.9833,-2.9832,-2.989,-2.992,-2.9914,-2.9935,-2.9934,-2.9939,-2.9964,-2.9948,-2.9967,-2.9981,-2.9956,-2.9986,-2.9982,-2.9992,-2.9992,-3.0015,-2.9987,-3.0006,-3.0012,-3.0018,-3.0027,-2.9873,-3.0016,-3.0016,-3.0015,-3.0015,-3.0014,0,-3.0045,-3.0039,-3.0058,-3.0066,-3.0083,-3.0044,-3.0047,-3.0064,-3.0091,-3.009,-3.0105,-3.0132,-3.0151,-3.0133,-3.0149,-3.0172,-3.0155,-3.0177,-3.0177,-3.0176,-3.005,-3.0038,-3.0191,-3.0191,-3.0191,-3.0191,-3.0191,-3.0191,-3.0128,-3.0176,-3.0159,-3.0206,-3.0199,-3.0228,-3.0233,-3.0238,-3.0237,-3.027,-3.0286,-3.0274,-3.0267,-3.0282,-3.0298,-3.0292,-3.0301,-3.0331,-3.0319,-3.0202,-3.0185,-3.0169,-3.0157,-3.0332,-3.0332,-3.0443,-3.0444,-3.0445]},{"header":{"parameterUnit":"m.s-1","parameterCategory":1,"la1":30.2991,"la2":30.254,"lo1":-89.0895,"lo2":-89.0444,"dx":0.0017,"dy":0.0017,"nx":28,"ny":28,"refTime":"2022-11-17T15:00:00:Z","depth":0,"parameterNumber":3,"parameterNumberName":"V-component_of_WINDS"},"data":[0,0,0,0,0,0,0,0,0,0,0,0,0,0,0,0,0,0,0,0,0,0,0,0,0,0,0,0,0,0,0,0,0,0,0,0,0,0,0,0,0,0,0,0,0,0,0,0,0,0,0,0,0,0,0,0,0,0,-3.6072,-3.6072,0,-3.6096,-3.6096,-3.6096,-3.6059,-3.6058,-3.6057,-3.6056,-3.6078,-3.6079,-3.6081,0,0,0,0,0,0,0,0,0,0,0,0,0,-3.5992,-3.5994,-3.6072,-3.6072,-3.6073,-3.6096,-3.6096,-3.6097,-3.606,-3.6058,-3.6056,-3.6055,-3.6077,-3.6079,-3.6081,0,0,0,0,0,0,0,0,0,0,0,0,0,-3.6023,-3.5995,-3.6072,-3.6057,-3.6056,-3.6096,-3.6096,-3.6097,-3.606,-3.6058,-3.6056,-3.6054,-3.6076,-3.6079,-3.6082,-3.6137,0,0,-3.609,-3.6091,0,0,0,0,0,0,0,0,-3.6021,-3.6026,-3.6059,-3.6058,-3.6057,-3.6073,-3.6076,-3.611,-3.606,-3.6058,-3.6055,-3.6053,-3.6077,-3.608,-3.6089,-3.6138,-3.6139,-3.609,-3.6092,-3.6093,-3.6094,0,0,0,0,0,0,0,-3.6019,-3.6024,-3.6081,-3.606,-3.6058,-3.6048,-3.6051,-3.6082,-3.6078,-3.6058,-3.6056,-3.6059,-3.6077,-3.6086,-3.6089,-3.6139,-3.609,-3.6092,-3.6094,-3.6095,-3.6235,-3.6237,0,0,0,0,0,0,-3.6019,-3.6023,-3.6081,-3.6082,-3.6034,-3.6051,-3.6054,-3.607,-3.6078,-3.6077,-3.6061,-3.6057,-3.6082,-3.6086,-3.6089,-3.6155,-3.6093,-3.6095,-3.6097,-3.6232,-3.6235,-3.6237,0,0,0,0,0,0,-3.6017,-3.6024,-3.608,-3.6052,-3.6058,-3.6055,-3.6073,-3.6071,-3.6081,-3.608,-3.6079,-3.6071,-3.6081,-3.6086,-3.6125,-3.6155,-3.6097,-3.6099,-3.623,-3.6233,-3.6236,-3.6286,0,0,0,0,0,0,-3.6015,-3.6024,-3.6046,-3.6053,-3.606,-3.6116,-3.6075,-3.6073,-3.6086,-3.6081,-3.6089,-3.6089,-3.608,-3.6122,-3.6128,-3.6158,-3.6101,-3.6227,-3.6231,-3.6235,-3.6282,-3.629,-3.6298,0,0,0,0,0,-3.6013,-3.6058,-3.6047,-3.6054,-3.6087,-3.6118,-3.6122,-3.6111,-3.6088,-3.6109,-3.6109,-3.6089,-3.6151,-3.6126,-3.6133,-3.6164,-3.6225,-3.623,-3.6235,-3.6278,-3.6289,-3.6298,0,0,0,0,0,0,-3.6054,-3.6059,-3.6046,-3.6096,-3.6107,-3.6112,-3.6138,-3.6123,-3.614,-3.6135,-3.6121,-3.6123,-3.6166,-3.6168,-3.6141,-3.6218,-3.6184,-3.619,-3.6215,-3.6225,-3.6233,-3.6231,-3.6103,0,0,0,0,0,-3.6069,-3.6094,-3.6097,-3.614,-3.6147,-3.6142,-3.6155,-3.6146,-3.6156,-3.6161,-3.6163,-3.6173,-3.6195,-3.621,-3.623,-3.6281,-3.6283,-3.6306,-3.6314,-3.6321,-3.6327,-3.6355,-3.6366,-3.6253,-3.6253,-3.6253,0,0,-3.6099,-3.6105,-3.6122,-3.6149,-3.6156,-3.6183,-3.6146,-3.6175,-3.6195,-3.6165,-3.6203,-3.6205,-3.6215,-3.6262,-3.6282,-3.6265,-3.6358,-3.6327,-3.6332,-3.6335,-3.6361,-3.6372,-3.6381,-3.6256,-3.6255,-3.6255,0,0,-3.617,-3.6177,-3.6214,-3.6222,-3.6235,-3.6231,-3.624,-3.6247,-3.6248,-3.6286,-3.6264,-3.6286,-3.6324,-3.6333,-3.6342,-3.6416,-3.6398,-3.6423,-3.6466,-3.6493,-3.6502,-3.651,-3.6537,-3.6546,-3.6428,-3.6428,-3.6429,0,-3.6206,-3.6246,-3.6234,-3.6266,-3.6278,-3.6253,-3.629,-3.6299,-3.6317,-3.6325,-3.6306,-3.6354,-3.6359,-3.6407,-3.6425,-3.6433,-3.6443,-3.6422,-3.6502,-3.6509,-3.6517,-3.6542,-3.6552,-3.6431,-3.6431,-3.6431,-3.643,0,-3.6291,-3.6319,-3.6348,-3.6367,-3.6382,-3.6416,-3.6409,-3.6425,-3.6415,-3.6413,-3.6452,-3.6458,-3.6479,-3.6489,-3.6479,-3.6536,-3.6525,-3.6504,-3.647,-3.6531,-3.6554,-3.6564,-3.6436,-3.6435,-3.6434,-3.6433,0,0,-3.6389,-3.6401,-3.6412,-3.642,-3.6432,-3.6453,-3.6486,-3.6507,-3.6522,-3.6535,-3.6562,-3.6595,-3.6575,-3.6586,-3.6576,-3.66,-3.6659,-3.6576,-3.6576,-3.6592,-3.6723,-3.674,-3.6751,-3.6647,-3.6649,-3.665,-3.6723,0,-3.6459,-3.6517,-3.6508,-3.6563,-3.6589,-3.6566,-3.6594,-3.6604,-3.6603,-3.6624,-3.6622,-3.6646,-3.6619,-3.6625,-3.6648,-3.6647,-3.6685,-3.6641,-3.6672,-3.6673,-3.6671,-3.6764,-3.6781,-3.6849,-3.6732,-3.6733,-3.6734,0,-3.655,-3.6567,-3.6626,-3.6634,-3.6645,-3.6671,-3.669,-3.671,-3.6721,-3.6718,-3.6731,-3.6716,-3.6748,-3.6713,-3.6758,-3.6728,-3.674,-3.6741,-3.6744,-3.6747,-3.6708,-3.677,-3.6871,-3.6881,-3.6749,-3.6748,-3.6746,0,-3.6616,-3.6654,-3.6695,-3.6702,-3.6713,-3.6732,-3.6736,-3.6745,-3.6759,-3.6775,-3.6783,-3.6803,-3.6813,-3.6828,-3.6819,-3.6795,-3.6865,-3.6829,-3.6864,-3.6865,-3.6881,-3.688,-3.6986,-3.6887,-3.6887,-3.6887,-3.6886,0,-3.6697,-3.6734,-3.6725,-3.675,-3.679,-3.6778,-3.6819,-3.682,-3.6828,-3.6853,-3.6833,-3.6856,-3.6842,-3.6864,-3.6857,-3.6895,-3.69,-3.6899,-3.6897,-3.6901,-3.6902,-3.6909,-3.6905,-3.6889,-3.6889,-3.6888,-3.6888,0,-3.6778,-3.6773,-3.6816,-3.6822,-3.6825,-3.6855,-3.686,-3.6883,-3.688,-3.6911,-3.6918,-3.6914,-3.6938,-3.6931,-3.6957,-3.6952,-3.7001,-3.6992,-3.6998,-3.6996,-3.7032,-3.7029,-3.7147,-3.7162,-3.7052,-3.7054,-3.7054,0,-3.683,-3.6859,-3.6868,-3.6884,-3.6891,-3.6915,-3.693,-3.6918,-3.6933,-3.6948,-3.6969,-3.6992,-3.701,-3.7051,-3.705,-3.707,-3.7062,-3.7102,-3.7065,-3.7069,-3.7064,-3.7063,-3.7066,-3.711,-3.7111,-3.7112,-3.7113,0,-3.6924,-3.692,-3.6942,-3.6963,-3.6981,-3.6996,-3.701,-3.7023,-3.7013,-3.7031,-3.7057,-3.7071,-3.7098,-3.7122,-3.714,-3.7144,-3.7127,-3.7124,-3.7134,-3.7139,-3.7142,-3.7142,-3.7019,-3.7122,-3.7121,-3.712,-3.712,-3.712,-3.6993,-3.7017,-3.7028,-3.7053,-3.7062,-3.7076,-3.7098,-3.7098,-3.712,-3.7142,-3.7134,-3.7163,-3.7173,-3.7196,-3.7202,-3.7225,-3.721,-3.7223,-3.7226,-3.723,-3.7235,-3.7138,-3.7228,-3.7228,-3.7227,-3.7227,-3.7227,0,-3.7087,-3.7092,-3.7115,-3.7136,-3.7155,-3.7138,-3.7152,-3.7169,-3.7196,-3.7207,-3.7225,-3.7255,-3.7277,-3.7278,-3.7299,-3.7317,-3.731,-3.7323,-3.7322,-3.7323,-3.7247,-3.7238,-3.7328,-3.7328,-3.7328,-3.7328,-3.7328,-3.7328,-3.7138,-3.7178,-3.7176,-3.722,-3.7226,-3.7255,-3.7265,-3.7277,-3.7286,-3.732,-3.7339,-3.734,-3.7346,-3.7368,-3.7387,-3.7387,-3.7396,-3.7412,-3.7409,-3.7338,-3.7328,-3.7319,-3.731,-3.7414,-3.7414,-3.7483,-3.7484,-3.7484]}]]